Bicheon

operational
NORAD ID: 66650 Int'l Des: 2025-274 Owner: SPLINT Country: KR
LEOCIRCULARRETROGRADESSO

About Bicheon

Description loading...

Live Position

Loading 3D Globe...

Upcoming Passes

Altitude History

Altitude vs Time

uPlot chart will show altitude changes over time

Two-Line Element Set

1 66650U 25274A 26013.74830037 .00002636 00000-0 26612-3 0 9994
2 66650 97.7412 305.3558 0012956 140.6226 219.5937 14.91852604 7179
Epoch: Jan 13, 2026 • Age: 23 hours

Current Status

Altitude 588.3 km
Velocity 7.57 km/s
Sub-Earth Point 1.12°N, 112.88°E
Launch Date Nov 26, 2025
Age 0.1 years
Type other

Technical Details

Classification Payload
Mass 11.00 kg
Dry Mass 11.00 kg
Total Mass 11.00 kg
Length 0.30 m
Diameter 0.10 m
Span 0.70 m
Shape Box+ 4 pan
Manufacturer SPLINT
Bus Type Cubesat 6U
Phase Status In Orbit
Owner/State SPLINT/KR

Large Constellations

Loading constellations...